Chicopee, MA

3:31 AM EDT on July 27, 2017 (GMT -0400)
Westover Air Reserve Base / Metropolitan Airport

Weather History for KCEF - August, 2012

Change the Weather History Date:

Friday, August 24, 2012

  Actual Average Record
Temperature  
Mean Temperature 70 °F -  
Max Temperature 86 °F 78 °F 91 °F (1998)
Min Temperature 55 °F 57 °F 44 °F (2003)
Cooling Degree Days 6    
Growing Degree Days 20 (Base 50)    
Moisture  
Dew Point 60 °F    
Average Humidity 93    
Maximum Humidity 100    
Minimum Humidity 40    
Precipitation  
Precipitation 0.00 in - - ()
Sea Level Pressure  
Sea Level Pressure 30.15 in    
Wind  
Wind Speed 1 mph (NNE)    
Max Wind Speed 6 mph    
Max Gust Speed -    
Visibility 3 miles    
Events Fog    
Averages and records for this station are not official NWS values.
T = Trace of Precipitation, MM = Missing Value Source: NWS Daily Summary

Daily Weather History Graph

Daily Weather History Graph

Search for Another Location

Airport or City:

Trip Planner

Search our weather history database for the weather conditions in past years. The results will help you decide how hot, cold, wet, or windy it might be!

Date:

Astronomy

Aug. 24, 2012 Rise Set
Actual Time 6:07 AM EDT 7:36 PM EDT
Civil Twilight 5:38 AM EDT 8:05 PM EDT
Nautical Twilight 5:02 AM EDT 8:40 PM EDT
Astronomical Twilight 4:25 AM EDT 9:18 PM EDT
Moon 2:06 PM EDT (8/24) 11:46 PM EDT (8/24)
Length of Visible Light 14h 27m
Length of Day
13h 28m
Waxing Crescent, 51% of the Moon is Illuminated
Aug 24
Waxing Crescent
Aug 31
Full
Sep 8
Last Quarter
Sep 15
New
Sep 22
First Quarter

Hourly Weather History & Observations

Time (EDT) Temp. Heat Index Dew Point Humidity Pressure Visibility Wind Dir Wind Speed Gust Speed Precip Events Conditions
12:55 AM 64.6 °F - 63.3 °F 96% 30.14 in 10.0 mi SSE 3.5 mph - N/A   Clear
1:43 AM 62.6 °F - 62.6 °F 100% 30.14 in 2.0 mi Calm Calm - N/A   Clear
1:44 AM 62.6 °F - 62.6 °F 100% 30.14 in 1.2 mi Calm Calm - N/A   Clear
1:45 AM 62.6 °F - 62.6 °F 100% 30.14 in 1.0 mi Calm Calm - N/A   Clear
1:47 AM 62.6 °F - 60.8 °F 94% 30.14 in 0.8 mi Calm Calm - N/A   Clear
1:50 AM 60.8 °F - 60.8 °F 100% 30.14 in 0.5 mi NE 3.5 mph - N/A Fog Fog
1:51 AM 60.8 °F - 60.8 °F 100% 30.14 in 0.5 mi NE 4.6 mph - N/A Fog Fog
1:52 AM 60.8 °F - 60.8 °F 100% 30.14 in 0.5 mi NE 4.6 mph - N/A Fog Fog
1:55 AM 60.6 °F - 60.1 °F 98% 30.14 in 0.5 mi NE 4.6 mph - N/A Fog Fog
1:56 AM 60.8 °F - 60.8 °F 100% 30.14 in 0.8 mi NE 4.6 mph - N/A   Clear
2:00 AM 60.8 °F - 60.8 °F 100% 30.14 in 1.0 mi North 3.5 mph - N/A   Clear
2:02 AM 60.8 °F - 60.8 °F 100% 30.14 in 1.2 mi NNE 3.5 mph - N/A   Clear
2:03 AM 60.8 °F - 60.8 °F 100% 30.14 in 1.8 mi Calm Calm - N/A   Clear
2:04 AM 60.8 °F - 60.8 °F 100% 30.14 in 2.5 mi Calm Calm - N/A   Clear
2:07 AM 60.8 °F - 60.8 °F 100% 30.14 in 3.0 mi Calm Calm - N/A   Clear
2:08 AM 60.8 °F - 60.8 °F 100% 30.14 in 2.5 mi Calm Calm - N/A   Clear
2:12 AM 62.6 °F - 60.8 °F 94% 30.14 in 2.0 mi NNE 3.5 mph - N/A   Clear
2:13 AM 62.6 °F - 60.8 °F 94% 30.14 in 1.5 mi NNE 3.5 mph - N/A   Clear
2:15 AM 62.6 °F - 60.8 °F 94% 30.14 in 1.2 mi Calm Calm - N/A   Clear
2:16 AM 60.8 °F - 60.8 °F 100% 30.14 in 1.0 mi Calm Calm - N/A   Clear
2:18 AM 60.8 °F - 60.8 °F 100% 30.14 in 0.8 mi Calm Calm - N/A   Clear
2:29 AM 60.8 °F - 60.8 °F 100% 30.14 in 0.5 mi Calm Calm - N/A Fog Fog
2:33 AM 60.8 °F - 60.8 °F 100% 30.14 in 0.2 mi Calm Calm - N/A Fog Fog
2:36 AM 60.8 °F - 60.8 °F 100% 30.14 in 0.2 mi Calm Calm - N/A Fog Fog
2:38 AM 60.8 °F - 60.8 °F 100% 30.14 in 0.2 mi Calm Calm - N/A Fog Fog
2:39 AM 60.8 °F - 60.8 °F 100% 30.14 in 0.2 mi Calm Calm - N/A Fog Fog
2:51 AM 59.0 °F - 59.0 °F 100% 30.14 in 0.2 mi Calm Calm - N/A Fog Fog
2:52 AM 59.0 °F - 59.0 °F 100% 30.14 in 0.2 mi Calm Calm - N/A Fog Fog
2:55 AM 58.8 °F - 58.3 °F 98% 30.14 in 0.2 mi Calm Calm - N/A Fog Fog
3:11 AM 60.8 °F - 59.0 °F 94% 30.14 in 0.2 mi Calm Calm - N/A Fog Fog
3:12 AM 60.8 °F - 59.0 °F 94% 30.14 in 0.2 mi Calm Calm - N/A Fog Fog
3:13 AM 60.8 °F - 59.0 °F 94% 30.14 in 0.2 mi Calm Calm - N/A Fog Fog
3:14 AM 60.8 °F - 59.0 °F 94% 30.14 in 0.5 mi Calm Calm - N/A Fog Fog
3:18 AM 60.8 °F - 59.0 °F 94% 30.14 in 0.8 mi Calm Calm - N/A   Clear
3:19 AM 60.8 °F - 59.0 °F 94% 30.14 in 1.0 mi Calm Calm - N/A   Clear
3:20 AM 60.8 °F - 59.0 °F 94% 30.14 in 1.5 mi Calm Calm - N/A   Clear
3:21 AM 60.8 °F - 59.0 °F 94% 30.14 in 2.5 mi Calm Calm - N/A   Clear
3:22 AM 60.8 °F - 59.0 °F 94% 30.14 in 4.0 mi Calm Calm - N/A   Clear
3:35 AM 60.8 °F - 60.8 °F 100% 30.14 in 2.0 mi Calm Calm - N/A   Clear
3:36 AM 60.8 °F - 59.0 °F 94% 30.14 in 1.5 mi Calm Calm - N/A   Clear
3:37 AM 60.8 °F - 59.0 °F 94% 30.14 in 1.0 mi Calm Calm - N/A   Clear
3:38 AM 60.8 °F - 59.0 °F 94% 30.14 in 0.8 mi Calm Calm - N/A   Clear
3:47 AM 59.0 °F - 59.0 °F 100% 30.13 in 1.0 mi Calm Calm - N/A   Clear
3:49 AM 59.0 °F - 59.0 °F 100% 30.13 in 1.2 mi Calm Calm - N/A   Clear
3:50 AM 59.0 °F - 59.0 °F 100% 30.13 in 1.0 mi Calm Calm - N/A   Clear
3:52 AM 59.0 °F - 59.0 °F 100% 30.13 in 0.8 mi Calm Calm - N/A   Clear
3:53 AM 59.0 °F - 59.0 °F 100% 30.13 in 0.5 mi Calm Calm - N/A Fog Fog
3:55 AM 59.4 °F - 58.8 °F 98% 30.13 in 0.5 mi Calm Calm - N/A Fog Fog
3:57 AM 59.0 °F - 59.0 °F 100% 30.13 in 0.5 mi Calm Calm - N/A Fog Fog
3:58 AM 60.8 °F - 59.0 °F 94% 30.13 in 0.2 mi Calm Calm - N/A Fog Fog
3:59 AM 60.8 °F - 59.0 °F 94% 30.13 in 0.2 mi Calm Calm - N/A Fog Fog
4:06 AM 59.0 °F - 59.0 °F 100% 30.13 in 0.2 mi Calm Calm - N/A Fog Fog
4:07 AM 59.0 °F - 59.0 °F 100% 30.13 in 0.2 mi NE 3.5 mph - N/A Fog Fog
4:17 AM 57.2 °F - 57.2 °F 100% 30.13 in 0.2 mi NNE 3.5 mph - N/A Fog Fog
4:18 AM 57.2 °F - 57.2 °F 100% 30.13 in 0.2 mi NNE 3.5 mph - N/A Fog Fog
4:23 AM 57.2 °F - 57.2 °F 100% 30.13 in 0.2 mi NNE 3.5 mph - N/A Fog Fog
4:25 AM 57.2 °F - 57.2 °F 100% 30.13 in 0.2 mi Calm Calm - N/A Fog Fog
4:26 AM 57.2 °F - 57.2 °F 100% 30.13 in 0.2 mi Calm Calm - N/A Fog Fog
4:27 AM 59.0 °F - 57.2 °F 94% 30.13 in 0.5 mi Calm Calm - N/A Fog Fog
4:31 AM 57.2 °F - 57.2 °F 100% 30.13 in 0.8 mi Calm Calm - N/A   Clear
4:32 AM 57.2 °F - 57.2 °F 100% 30.13 in 1.0 mi Calm Calm - N/A   Clear
4:33 AM 57.2 °F - 57.2 °F 100% 30.13 in 1.2 mi Calm Calm - N/A   Clear
4:34 AM 59.0 °F - 57.2 °F 94% 30.13 in 2.0 mi Calm Calm - N/A   Clear
4:35 AM 59.0 °F - 57.2 °F 94% 30.13 in 3.0 mi Calm Calm - N/A   Clear
4:47 AM 60.8 °F - 59.0 °F 94% 30.14 in 2.0 mi Calm Calm - N/A   Clear
4:48 AM 60.8 °F - 59.0 °F 94% 30.14 in 1.5 mi Calm Calm - N/A   Clear
4:49 AM 60.8 °F - 59.0 °F 94% 30.14 in 1.0 mi Calm Calm - N/A   Clear
4:50 AM 60.8 °F - 59.0 °F 94% 30.14 in 0.8 mi Calm Calm - N/A   Clear
4:51 AM 59.0 °F - 59.0 °F 100% 30.14 in 0.5 mi Calm Calm - N/A Fog Fog
4:55 AM 59.7 °F - 59.0 °F 97% 30.14 in 0.5 mi Calm Calm - N/A Fog Fog
4:56 AM 59.0 °F - 59.0 °F 100% 30.14 in 0.2 mi Calm Calm - N/A Fog Fog
4:57 AM 59.0 °F - 59.0 °F 100% 30.14 in 0.2 mi Calm Calm - N/A Fog Fog
5:00 AM 59.0 °F - 59.0 °F 100% 30.14 in 0.2 mi Calm Calm - N/A Fog Fog
5:01 AM 59.0 °F - 59.0 °F 100% 30.14 in 0.5 mi Calm Calm - N/A Fog Fog
5:05 AM 59.0 °F - 57.2 °F 94% 30.14 in 0.5 mi Calm Calm - N/A Fog Fog
5:06 AM 59.0 °F - 57.2 °F 94% 30.14 in 0.8 mi Calm Calm - N/A   Clear
5:08 AM 59.0 °F - 57.2 °F 94% 30.14 in 1.0 mi Calm Calm - N/A   Clear
5:10 AM 59.0 °F - 57.2 °F 94% 30.14 in 1.2 mi Calm Calm - N/A   Clear
5:11 AM 59.0 °F - 57.2 °F 94% 30.14 in 1.5 mi Calm Calm - N/A   Clear
5:12 AM 59.0 °F - 57.2 °F 94% 30.14 in 2.0 mi Calm Calm - N/A   Clear
5:13 AM 59.0 °F - 57.2 °F 94% 30.14 in 3.0 mi Calm Calm - N/A   Clear
5:22 AM 57.2 °F - 57.2 °F 100% 30.14 in 2.0 mi Calm Calm - N/A   Clear
5:23 AM 57.2 °F - 57.2 °F 100% 30.14 in 1.5 mi Calm Calm - N/A   Clear
5:24 AM 57.2 °F - 57.2 °F 100% 30.14 in 1.2 mi Calm Calm - N/A   Clear
5:25 AM 57.2 °F - 57.2 °F 100% 30.14 in 1.0 mi Calm Calm - N/A   Clear
5:26 AM 57.2 °F - 57.2 °F 100% 30.14 in 0.8 mi Calm Calm - N/A   Clear
5:28 AM 57.2 °F - 57.2 °F 100% 30.14 in 0.5 mi Calm Calm - N/A Fog Fog
5:30 AM 57.2 °F - 57.2 °F 100% 30.14 in 0.5 mi Calm Calm - N/A Fog Fog
5:33 AM 57.2 °F - 55.4 °F 94% 30.14 in 0.5 mi North 3.5 mph - N/A Fog Fog
5:34 AM 57.2 °F - 55.4 °F 94% 30.14 in 0.5 mi North 3.5 mph - N/A Fog Fog
5:36 AM 57.2 °F - 55.4 °F 94% 30.14 in 0.8 mi North 3.5 mph - N/A   Clear
5:38 AM 55.4 °F - 55.4 °F 100% 30.14 in 1.0 mi North 3.5 mph - N/A   Clear
5:39 AM 55.4 °F - 55.4 °F 100% 30.14 in 1.2 mi North 3.5 mph - N/A   Clear
5:40 AM 55.4 °F - 55.4 °F 100% 30.14 in 1.8 mi North 4.6 mph - N/A   Clear
5:41 AM 55.4 °F - 55.4 °F 100% 30.14 in 2.5 mi North 4.6 mph - N/A   Clear
5:42 AM 55.4 °F - 55.4 °F 100% 30.14 in 4.0 mi North 4.6 mph - N/A   Clear
5:55 AM 57.7 °F - 57.2 °F 98% 30.15 in 4.0 mi Calm Calm - N/A   Clear
5:57 AM 59.0 °F - 57.2 °F 94% 30.15 in 2.5 mi Calm Calm - N/A   Clear
5:59 AM 59.0 °F - 57.2 °F 94% 30.15 in 2.0 mi Calm Calm - N/A   Clear
6:00 AM 59.0 °F - 57.2 °F 94% 30.15 in 1.8 mi Calm Calm - N/A   Clear
6:02 AM 59.0 °F - 59.0 °F 100% 30.15 in 1.5 mi Calm Calm - N/A   Clear
6:07 AM 59.0 °F - 59.0 °F 100% 30.15 in 1.8 mi Calm Calm - N/A   Clear
6:10 AM 59.0 °F - 59.0 °F 100% 30.15 in 2.0 mi Calm Calm - N/A   Clear
6:14 AM 59.0 °F - 59.0 °F 100% 30.15 in 1.8 mi Calm Calm - N/A   Clear
6:21 AM 59.0 °F - 59.0 °F 100% 30.16 in 2.0 mi Calm Calm - N/A   Clear
6:25 AM 59.0 °F - 57.2 °F 94% 30.16 in 2.5 mi Calm Calm - N/A   Clear
6:26 AM 59.0 °F - 57.2 °F 94% 30.16 in 3.0 mi Calm Calm - N/A   Clear
6:55 AM 58.5 °F - 57.9 °F 98% 30.17 in 2.0 mi Calm Calm - N/A   Mostly Cloudy
7:01 AM 59.0 °F - 59.0 °F 100% 30.17 in 0.5 mi North 2.3 mph - N/A Fog Fog
7:14 AM 60.8 °F - 59.0 °F 94% 30.17 in 1.5 mi Calm Calm - N/A   Mostly Cloudy
7:18 AM 60.8 °F - 60.8 °F 100% 30.17 in 1.5 mi Calm Calm - N/A   Mostly Cloudy
7:22 AM 60.8 °F - 60.8 °F 100% 30.17 in 1.2 mi Calm Calm - N/A   Mostly Cloudy
7:26 AM 60.8 °F - 60.8 °F 100% 30.17 in 1.2 mi Calm Calm - N/A   Mostly Cloudy
7:33 AM 62.6 °F - 60.8 °F 94% 30.18 in 2.0 mi Calm Calm - N/A   Mostly Cloudy
7:43 AM 62.6 °F - 62.6 °F 100% 30.18 in 3.0 mi Calm Calm - N/A   Mostly Cloudy
7:47 AM 62.6 °F - 62.6 °F 100% 30.18 in 4.0 mi Calm Calm - N/A   Mostly Cloudy
7:55 AM 63.1 °F - 63.0 °F 99% 30.18 in 7.0 mi Calm Calm - N/A   Mostly Cloudy
8:55 AM 67.3 °F - 66.9 °F 99% 30.18 in 10.0 mi Calm Calm - N/A   Clear
9:55 AM 73.2 °F - 63.5 °F 71% 30.19 in 10.0 mi North 3.5 mph - N/A   Clear
10:55 AM 77.5 °F - 62.4 °F 59% 30.18 in 10.0 mi North 5.8 mph - N/A   Clear
11:48 AM 80.6 °F 82.3 °F 64.4 °F 58% 30.18 in 10.0 mi Variable 4.6 mph - N/A   Light Drizzle
11:55 AM 80.2 °F 81.8 °F 63.9 °F 57% 30.18 in 10.0 mi NE 4.6 mph - N/A   Mostly Cloudy
12:55 PM 82.6 °F 83.6 °F 62.8 °F 51% 30.17 in 10.0 mi North 4.6 mph - 0.00 in   Mostly Cloudy
1:11 PM 82.4 °F 83.4 °F 62.6 °F 51% 30.17 in 10.0 mi NNE 3.5 mph - N/A   Light Drizzle
1:55 PM 83.1 °F 83.9 °F 62.1 °F 49% 30.17 in 10.0 mi Variable 3.5 mph - N/A   Mostly Cloudy
2:55 PM 85.1 °F 85.2 °F 60.6 °F 44% 30.16 in 10.0 mi South 4.6 mph - N/A   Mostly Cloudy
3:00 PM 86.0 °F 86.1 °F 60.8 °F 43% 30.16 in 10.0 mi SSE 5.8 mph - N/A   Light Drizzle
3:09 PM 84.2 °F 83.8 °F 59.0 °F 42% 30.16 in 10.0 mi Calm Calm - N/A   Clear
3:55 PM 84.2 °F 83.8 °F 58.6 °F 42% 30.15 in 10.0 mi Calm Calm - N/A   Mostly Cloudy
4:55 PM 84.6 °F 83.9 °F 57.9 °F 40% 30.15 in 10.0 mi Calm Calm - N/A   Mostly Cloudy
5:55 PM 84.6 °F 84.4 °F 59.5 °F 43% 30.15 in 10.0 mi Calm Calm - N/A   Mostly Cloudy
6:55 PM 81.1 °F 82.0 °F 61.7 °F 51% 30.15 in 10.0 mi Calm Calm - N/A   Mostly Cloudy
7:55 PM 72.9 °F - 68.7 °F 87% 30.16 in 10.0 mi NNE 3.5 mph - N/A   Mostly Cloudy
8:55 PM 67.8 °F - 67.1 °F 98% 30.18 in 10.0 mi Calm Calm - N/A   Clear
9:55 PM 67.1 °F - 64.6 °F 92% 30.19 in 10.0 mi Calm Calm - N/A   Clear
10:36 PM 66.2 °F - 66.2 °F 100% 30.19 in 8.0 mi Calm Calm - N/A   Light Drizzle
10:37 PM 66.2 °F - 66.2 °F 100% 30.19 in 9.0 mi Calm Calm - N/A   Clear
10:55 PM 65.5 °F - 64.9 °F 98% 30.19 in 8.0 mi Calm Calm - 0.00 in   Clear
11:44 PM 64.4 °F - 64.4 °F 100% 30.20 in 2.5 mi Calm Calm - N/A   Clear
11:48 PM 64.4 °F - 62.6 °F 94% 30.20 in 2.0 mi Calm Calm - N/A   Clear
11:50 PM 64.4 °F - 62.6 °F 94% 30.20 in 2.5 mi Calm Calm - N/A   Clear
11:52 PM 64.4 °F - 62.6 °F 94% 30.20 in 3.0 mi Calm Calm - N/A   Clear
11:53 PM 64.4 °F - 62.6 °F 94% 30.20 in 2.5 mi Calm Calm - N/A   Clear
11:55 PM 63.7 °F - 63.1 °F 98% 30.20 in 2.5 mi Calm Calm - N/A   Clear